STARLINK-37090

operational
NORAD ID: 70130 Constellation: starlink
LEOCIRCULAR

关于 STARLINK-37090

正在加载描述...

实时位置

正在加载3D地球...

即将过境

高度历史

Altitude vs Time

uPlot chart will show altitude changes over time

两行轨道根数

1 70130C 26050AC 26073.73243056 .00592290 00000+0 76826-3 0 733
2 70130 53.1640 257.6161 0010926 268.8293 224.2403 16.05626478 19
Epoch: Mar 14, 2026 • Age: 47 hours